CW6421 Weather Reports


time (UTC)temp
F
wind
direction
speed
knots
gust
knots
rain 1hr
in
rain 24hr
in
rain mn
in
humidity
%
barometer
mb
20260504222526 62 59 6.1 10.4 0.00 0.00 0.00 69 1012.1
20260504221530 62 55 7.0 8.7 0.00 0.00 0.00 69 1012.1
20260504220528 63 51 7.8 9.6 0.00 0.00 0.00 68 1012.3
20260504215527 63 41 7.8 9.6 0.00 0.00 0.00 68 1012.3
20260504214529 63 27 6.1 7.0 0.00 0.00 0.00 67 1012.3
20260504213527 64 38 6.1 7.8 0.00 0.00 0.00 67 1012.3
20260504212525 64 21 5.2 7.0 0.00 0.00 0.00 66 1012.3
20260504210527 64 34 2.6 6.1 0.00 0.00 0.00 65 1012.1
20260504205526 65 31 2.6 7.0 0.00 0.00 0.00 64 1012.1
20260504204532 65 32 4.3 7.0 0.00 0.00 0.00 64 1012.1
20260504203527 65 25 3.5 7.0 0.00 0.00 0.00 63 1012.1
20260504201528 65 45 3.5 7.0 0.00 0.00 0.00 63 1012.1
20260504195527 66 46 3.5 7.8 0.00 0.00 0.00 62 1011.9
20260504193528 66 21 4.3 7.8 0.00 0.00 0.00 61 1011.9
20260504191529 67 4 6.1 7.0 0.00 0.00 0.00 60 1011.9
20260504190528 67 8 7.0 8.7 0.00 0.00 0.00 60 1011.6
20260504185527 68 8 5.2 7.0 0.00 0.00 0.00 59 1011.6
20260504183527 69 340 6.1 7.8 0.00 0.00 0.00 59 1011.6
20260504182527 69 341 5.2 7.0 0.00 0.00 0.00 59 1011.6
20260504181529 69 302 6.1 6.1 0.00 0.00 0.00 58 1011.6
20260504180528 70 304 4.3 8.7 0.00 0.00 0.00 57 1011.4
20260504175526 70 313 5.2 7.0 0.00 0.00 0.00 56 1011.4
20260504174530 71 318 3.5 8.7 0.00 0.00 0.00 55 1011.4
20260504172526 71 300 3.5 8.7 0.00 0.00 0.00 55 1011.4
20260504171529 71 253 3.5 7.8 0.00 0.00 0.00 54 1011.4
20260504150528 75 300 6.1 12.2 0.00 0.00 0.00 51 1012.1
20260504140527 76 281 9.6 12.2 0.00 0.00 0.00 51 1012.4
20260504130527 76 261 7.8 12.2 0.00 0.00 0.00 47 1012.5
20260504110527 74 281 8.7 19.1 0.00 0.00 0.00 52 1013.1
20260504100528 70 259 8.7 22.6 0.00 0.00 0.00 57 1013.4
20260504081530 67 274 7.0 10.4 0.00 0.00 0.00 63 1013.0
20260504080528 67 265 6.1 10.4 0.00 0.00 0.00 62 1012.7
20260504050528 63 230 9.6 11.3 0.00 0.00 0.00 60 1011.6
20260504045526 64 213 8.7 9.6 0.00 0.00 0.00 60 1011.6
20260504044528 64 228 8.7 9.6 0.00 0.00 0.00 60 1011.6
20260504043526 63 213 7.0 7.8 0.00 0.00 0.00 59 1011.6
20260504042528 63 224 7.8 8.7 0.00 0.00 0.00 60 1011.6
20260504041529 64 234 7.0 9.6 0.00 0.00 0.00 60 1011.6
20260504040527 64 232 6.1 7.0 0.00 0.00 0.00 60 1011.7
20260504035526 64 237 5.2 7.0 0.00 0.00 0.00 60 1011.7
20260504034528 64 256 5.2 7.0 0.00 0.00 0.00 59 1011.7
20260504033527 64 264 5.2 7.0 0.00 0.00 0.00 58 1011.7
20260504032527 64 258 5.2 7.8 0.00 0.00 0.00 57 1011.7
20260504025527 65 252 5.2 7.0 0.00 0.00 0.00 54 1011.7
20260504023526 65 255 7.8 8.7 0.00 0.00 0.00 53 1011.7
20260504022525 65 267 7.8 8.7 0.00 0.00 0.00 51 1011.7
20260504020528 66 276 4.3 17.4 0.00 0.00 0.00 50 1011.0
20260504015526 66 281 7.0 17.4 0.00 0.00 0.00 50 1011.0
20260504014528 66 249 6.1 17.4 0.00 0.00 0.00 50 1011.0
20260504013526 66 258 6.1 17.4 0.00 0.00 0.00 49 1011.0
20260504012526 67 246 6.1 15.6 0.00 0.00 0.00 49 1011.0
20260504010526 67 295 6.1 20.9 0.00 0.00 0.00 48 1010.9
20260504005527 67 280 6.1 20.9 0.00 0.00 0.00 47 1010.9
20260504004528 67 308 8.7 20.9 0.00 0.00 0.00 47 1010.9
20260504003525 68 302 8.7 17.4 0.00 0.00 0.00 47 1010.9
20260504000526 69 298 12.2 13.9 0.00 0.00 0.00 45 1010.7
20260503235526 69 290 13.0 15.6 0.00 0.00 0.00 44 1010.7
20260503233527 70 299 10.4 15.6 0.00 0.00 0.00 43 1010.7
20260503232526 70 287 13.0 14.8 0.00 0.00 0.00 43 1010.7
20260503231528 70 276 8.7 14.8 0.00 0.00 0.00 43 1010.7
20260503230527 70 277 7.0 8.7 0.00 0.00 0.00 43 1010.8
20260503224529 71 255 4.3 5.2 0.00 0.00 0.00 43 1010.8
20260503223527 71 255 4.3 5.2 0.00 0.00 0.00 43 1010.8